Tracking 26492 objects as of 8-Dec-2022
HD Live streaming from Space Station
objects crossing your sky now

COSMOS 1375 DEB

Track COSMOS 1375 DEB now!
10-day predictions


NORAD ID: 17803
Int'l Code: 1982-055AV
Perigee: 943.5 km
Apogee: 999.6 km
Inclination: 65.8 °
Period: 104.4 minutes
Semi major axis: 7342 km
RCS: 0.014 m2 (small)
Launch date: June 6, 1982
Source: Commonwealth of Independent States (former USSR) (CIS)
Launch site: PLESETSK MISSILE AND SPACE COMPLEX (PKMTR)

Note: This is SATELLITE DEBRIS
aabbcc
Your satellite tracking list
Your tracking list is empty




NASA's NSSDC Master Catalog

Two Line Element Set (TLE):
1 17803U 82055AV  22341.60231587  .00000223  00000-0  29230-3 0  9999
2 17803  65.8311 198.7256 0038150 156.3607 237.2235 13.79849454866163
Source of the keplerian elements: AFSPC